Time,TemperatureF,DewpointF,PressureIn,WindDirection,WindDirectionDegrees,WindSpeedMPH,WindSpeedGustMPH,Humidity,HourlyPrecipIn,Conditions,Clouds,dailyrainin,SolarRadiationWatts/m^2,SoftwareType,DateUTC
2013-02-19 00:01:00,38.0,36.0,-100.00,SE,141,13.0,20.0,92,0.02,,,0.04,0.000000,,2013-02-19 08:01:00,
2013-02-19 00:11:00,38.0,36.0,-100.00,SE,141,13.0,20.0,92,0.02,,,0.04,0.000000,,2013-02-19 08:11:00,
2013-02-19 01:32:00,37.0,35.0,-100.00,SE,137,8.0,17.0,94,-99.99,,,0.08,0.000000,,2013-02-19 09:32:00,
2013-02-19 01:42:00,37.0,35.0,-100.00,SE,137,8.0,17.0,94,-99.99,,,0.08,0.000000,,2013-02-19 09:42:00,
2013-02-19 01:53:00,37.0,35.0,-100.00,SE,137,8.0,17.0,94,-99.99,,,0.08,0.000000,,2013-02-19 09:53:00,
2013-02-19 02:01:00,37.0,35.0,-100.00,SE,137,8.0,17.0,94,-99.99,,,0.08,0.000000,,2013-02-19 10:01:00,
2013-02-19 02:11:00,37.0,35.0,-100.00,SE,137,8.0,17.0,94,-99.99,,,0.08,0.000000,,2013-02-19 10:11:00,
2013-02-19 02:32:00,33.0,31.0,-100.00,SSE,160,7.0,15.0,94,0.14,,,0.22,0.000000,,2013-02-19 10:32:00,
2013-02-19 02:42:00,33.0,31.0,-100.00,SSE,160,7.0,15.0,94,0.14,,,0.22,0.000000,,2013-02-19 10:42:00,
2013-02-19 02:52:00,33.0,31.0,-100.00,SSE,160,7.0,15.0,94,0.14,,,0.22,0.000000,,2013-02-19 10:52:00,
2013-02-19 03:01:00,33.0,31.0,-100.00,SSE,160,7.0,15.0,94,0.14,,,0.22,0.000000,,2013-02-19 11:01:00,
2013-02-19 03:11:00,33.0,31.0,-100.00,SSE,160,7.0,15.0,94,0.14,,,0.22,0.000000,,2013-02-19 11:11:00,
2013-02-19 03:42:00,33.0,32.0,-100.00,South,191,7.0,14.0,96,0.02,,,0.24,0.000000,,2013-02-19 11:42:00,
2013-02-19 03:52:00,33.0,32.0,-100.00,South,191,7.0,14.0,96,0.02,,,0.24,0.000000,,2013-02-19 11:52:00,
2013-02-19 04:01:00,33.0,32.0,-100.00,South,191,7.0,14.0,96,0.02,,,0.24,0.000000,,2013-02-19 12:01:00,
2013-02-19 04:12:00,33.0,32.0,-100.00,South,191,7.0,14.0,96,0.02,,,0.24,0.000000,,2013-02-19 12:12:00,
2013-02-19 04:32:00,34.0,33.0,-100.00,South,189,5.0,11.0,96,0.05,,,0.29,0.000000,,2013-02-19 12:32:00,
2013-02-19 04:42:00,34.0,33.0,-100.00,South,189,5.0,11.0,96,0.05,,,0.29,0.000000,,2013-02-19 12:42:00,
2013-02-19 04:52:00,34.0,33.0,-100.00,South,189,5.0,11.0,96,0.05,,,0.29,0.000000,,2013-02-19 12:52:00,
2013-02-19 05:01:00,34.0,33.0,-100.00,South,189,5.0,11.0,96,0.05,,,0.29,0.000000,,2013-02-19 13:01:00,
2013-02-19 05:11:00,34.0,33.0,-100.00,South,189,5.0,11.0,96,0.05,,,0.29,0.000000,,2013-02-19 13:11:00,
2013-02-19 05:32:00,33.0,32.0,-100.00,South,185,9.0,13.0,97,0.02,,,-99.99,0.000000,,2013-02-19 13:32:00,
2013-02-19 05:42:00,33.0,32.0,-100.00,South,185,9.0,13.0,97,0.02,,,-99.99,0.000000,,2013-02-19 13:42:00,
2013-02-19 05:52:00,33.0,32.0,-100.00,South,185,9.0,13.0,97,0.02,,,-99.99,0.000000,,2013-02-19 13:52:00,
2013-02-19 06:01:00,33.0,32.0,-100.00,South,185,9.0,13.0,97,0.02,,,-99.99,0.000000,,2013-02-19 14:01:00,
2013-02-19 06:11:00,33.0,32.0,-100.00,South,185,9.0,13.0,97,0.02,,,-99.99,0.000000,,2013-02-19 14:11:00,
2013-02-19 06:33:00,33.0,32.0,-100.00,SSE,166,6.0,13.0,96,0.05,,,0.36,0.000000,,2013-02-19 14:33:00,
2013-02-19 06:42:00,33.0,32.0,-100.00,SSE,166,6.0,13.0,96,0.05,,,0.36,0.000000,,2013-02-19 14:42:00,
2013-02-19 06:52:00,33.0,32.0,-100.00,SSE,166,6.0,13.0,96,0.05,,,0.36,0.000000,,2013-02-19 14:52:00,
2013-02-19 07:01:00,33.0,32.0,-100.00,SSE,166,6.0,13.0,96,0.05,,,0.36,0.000000,,2013-02-19 15:01:00,
2013-02-19 07:11:00,33.0,32.0,-100.00,SSE,166,6.0,13.0,96,0.05,,,0.36,0.000000,,2013-02-19 15:11:00,
2013-02-19 07:42:00,33.0,32.0,-100.00,SE,136,6.0,8.0,97,0.02,,,0.38,0.000000,,2013-02-19 15:42:00,
2013-02-19 07:52:00,33.0,32.0,-100.00,SE,136,6.0,8.0,97,0.02,,,0.38,0.000000,,2013-02-19 15:52:00,
2013-02-19 08:01:00,33.0,32.0,-100.00,SE,136,6.0,8.0,97,0.02,,,0.38,0.000000,,2013-02-19 16:01:00,
2013-02-19 08:11:00,33.0,32.0,-100.00,SE,136,6.0,8.0,97,0.02,,,0.38,0.000000,,2013-02-19 16:11:00,
2013-02-19 08:42:00,33.0,32.0,-100.00,SSW,192,10.0,15.0,97,0.02,,,-99.99,12.000000,,2013-02-19 16:42:00,
2013-02-19 08:52:00,33.0,32.0,-100.00,SSW,192,10.0,15.0,97,0.02,,,-99.99,12.000000,,2013-02-19 16:52:00,
2013-02-19 09:01:00,33.0,32.0,-100.00,SSW,192,10.0,15.0,97,0.02,,,-99.99,12.000000,,2013-02-19 17:01:00,
2013-02-19 09:11:00,33.0,32.0,-100.00,SSW,192,10.0,15.0,97,0.02,,,-99.99,12.000000,,2013-02-19 17:11:00,
2013-02-19 09:42:00,34.0,33.0,-100.00,SSW,205,8.0,15.0,95,0.11,,,0.51,57.000000,,2013-02-19 17:42:00,
2013-02-19 09:52:00,34.0,33.0,-100.00,SSW,205,8.0,15.0,95,0.11,,,0.51,57.000000,,2013-02-19 17:52:00,
2013-02-19 10:01:00,34.0,33.0,-100.00,SSW,205,8.0,15.0,95,0.11,,,0.51,57.000000,,2013-02-19 18:01:00,
2013-02-19 10:11:00,34.0,33.0,-100.00,SSW,205,8.0,15.0,95,0.11,,,0.51,57.000000,,2013-02-19 18:11:00,
2013-02-19 10:42:00,41.0,37.0,-100.00,SSE,165,6.0,11.0,86,0.22,,,0.73,540.000000,,2013-02-19 18:42:00,
2013-02-19 10:52:00,41.0,37.0,-100.00,SSE,165,6.0,11.0,86,0.22,,,0.73,540.000000,,2013-02-19 18:52:00,
2013-02-19 11:01:00,41.0,37.0,-100.00,SSE,165,6.0,11.0,86,0.22,,,0.73,540.000000,,2013-02-19 19:01:00,
2013-02-19 11:11:00,41.0,37.0,-100.00,SSE,165,6.0,11.0,86,0.22,,,0.73,540.000000,,2013-02-19 19:11:00,
2013-02-19 11:32:00,41.0,37.0,-100.00,WSW,250,6.0,9.0,84,0.07,,,0.80,406.000000,,2013-02-19 19:32:00,
2013-02-19 11:42:00,41.0,37.0,-100.00,WSW,250,6.0,9.0,84,0.07,,,0.80,406.000000,,2013-02-19 19:42:00,
2013-02-19 11:52:00,41.0,37.0,-100.00,WSW,250,6.0,9.0,84,0.07,,,0.80,406.000000,,2013-02-19 19:52:00,
2013-02-19 12:01:00,41.0,37.0,-100.00,WSW,250,6.0,9.0,84,0.07,,,0.80,406.000000,,2013-02-19 20:01:00,
2013-02-19 12:11:00,41.0,37.0,-100.00,WSW,250,6.0,9.0,84,0.07,,,0.80,406.000000,,2013-02-19 20:11:00,
2013-02-19 12:42:00,41.0,34.0,-100.00,WSW,247,5.0,9.0,77,0.00,,,-99.99,492.000000,,2013-02-19 20:42:00,
2013-02-19 12:52:00,41.0,34.0,-100.00,WSW,247,5.0,9.0,77,0.00,,,-99.99,492.000000,,2013-02-19 20:52:00,
2013-02-19 13:01:00,41.0,34.0,-100.00,WSW,247,5.0,9.0,77,0.00,,,-99.99,492.000000,,2013-02-19 21:01:00,
2013-02-19 13:11:00,41.0,34.0,-100.00,WSW,247,5.0,9.0,77,0.00,,,-99.99,492.000000,,2013-02-19 21:11:00,
2013-02-19 13:42:00,44.0,36.0,-100.00,West,273,8.0,12.0,74,0.00,,,0.80,548.000000,,2013-02-19 21:42:00,
2013-02-19 13:52:00,44.0,36.0,-100.00,West,273,8.0,12.0,74,0.00,,,0.80,548.000000,,2013-02-19 21:52:00,
2013-02-19 14:01:00,44.0,36.0,-100.00,West,273,8.0,12.0,74,0.00,,,0.80,548.000000,,2013-02-19 22:01:00,
2013-02-19 14:11:00,44.0,36.0,-100.00,West,273,8.0,12.0,74,0.00,,,0.80,548.000000,,2013-02-19 22:11:00,
2013-02-19 14:42:00,40.0,38.0,-100.00,NNW,341,5.0,16.0,91,0.04,,,-99.99,302.000000,,2013-02-19 22:42:00,
2013-02-19 14:52:00,40.0,38.0,-100.00,NNW,341,5.0,16.0,91,0.04,,,-99.99,302.000000,,2013-02-19 22:52:00,
2013-02-19 15:01:00,40.0,38.0,-100.00,NNW,341,5.0,16.0,91,0.04,,,-99.99,302.000000,,2013-02-19 23:01:00,
2013-02-19 15:11:00,40.0,38.0,-100.00,NNW,341,5.0,16.0,91,0.04,,,-99.99,302.000000,,2013-02-19 23:11:00,
2013-02-19 15:32:00,42.0,40.0,-100.00,WNW,296,10.0,16.0,91,0.01,,,0.85,251.000000,,2013-02-19 23:32:00,
2013-02-19 15:42:00,42.0,40.0,-100.00,WNW,296,10.0,16.0,91,0.01,,,0.85,251.000000,,2013-02-19 23:42:00,
2013-02-19 15:52:00,42.0,40.0,-100.00,WNW,296,10.0,16.0,91,0.01,,,0.85,251.000000,,2013-02-19 23:52:00,
2013-02-19 16:01:00,42.0,40.0,-100.00,WNW,296,10.0,16.0,91,0.01,,,0.85,251.000000,,2013-02-20 00:01:00,
2013-02-19 16:11:00,42.0,40.0,-100.00,WNW,296,10.0,16.0,91,0.01,,,0.85,251.000000,,2013-02-20 00:11:00,
2013-02-19 16:42:00,42.0,38.0,-100.00,NW,307,11.0,17.0,86,0.00,,,0.85,312.000000,,2013-02-20 00:42:00,
2013-02-19 16:52:00,42.0,38.0,-100.00,NW,307,11.0,17.0,86,0.00,,,0.85,312.000000,,2013-02-20 00:52:00,
2013-02-19 17:02:00,42.0,38.0,-100.00,NW,307,11.0,17.0,86,0.00,,,0.85,312.000000,,2013-02-20 01:02:00,
2013-02-19 17:11:00,42.0,38.0,-100.00,NW,307,11.0,17.0,86,0.00,,,0.85,312.000000,,2013-02-20 01:11:00,
2013-02-19 17:32:00,39.0,36.0,-100.00,NW,310,9.0,15.0,88,0.00,,,0.85,69.000000,,2013-02-20 01:32:00,
2013-02-19 17:42:00,39.0,36.0,-100.00,NW,310,9.0,15.0,88,0.00,,,0.85,69.000000,,2013-02-20 01:42:00,
2013-02-19 17:52:00,39.0,36.0,-100.00,NW,310,9.0,15.0,88,0.00,,,0.85,69.000000,,2013-02-20 01:52:00,
2013-02-19 18:01:00,39.0,36.0,-100.00,NW,310,9.0,15.0,88,0.00,,,0.85,69.000000,,2013-02-20 02:01:00,
2013-02-19 18:11:00,39.0,36.0,-100.00,NW,310,9.0,15.0,88,0.00,,,0.85,69.000000,,2013-02-20 02:11:00,
2013-02-19 18:42:00,38.0,34.0,-100.00,NW,318,12.0,16.0,86,0.00,,,0.85,5.000000,,2013-02-20 02:42:00,
2013-02-19 18:52:00,38.0,34.0,-100.00,NW,318,12.0,16.0,86,0.00,,,0.85,5.000000,,2013-02-20 02:52:00,
2013-02-19 19:01:00,38.0,34.0,-100.00,NW,318,12.0,16.0,86,0.00,,,0.85,5.000000,,2013-02-20 03:01:00,
2013-02-19 19:12:00,38.0,34.0,-100.00,NW,318,12.0,16.0,86,0.00,,,0.85,5.000000,,2013-02-20 03:12:00,
2013-02-19 19:32:00,38.0,35.0,-100.00,NW,320,9.0,16.0,89,0.00,,,0.85,0.000000,,2013-02-20 03:32:00,
2013-02-19 19:42:00,38.0,35.0,-100.00,NW,320,9.0,16.0,89,0.00,,,0.85,0.000000,,2013-02-20 03:42:00,
2013-02-19 19:52:00,38.0,35.0,-100.00,NW,320,9.0,16.0,89,0.00,,,0.85,0.000000,,2013-02-20 03:52:00,
2013-02-19 20:01:00,38.0,35.0,-100.00,NW,320,9.0,16.0,89,0.00,,,0.85,0.000000,,2013-02-20 04:01:00,
2013-02-19 20:11:00,38.0,35.0,-100.00,NW,320,9.0,16.0,89,0.00,,,0.85,0.000000,,2013-02-20 04:11:00,
2013-02-19 20:42:00,38.0,34.0,-100.00,NW,312,9.0,11.0,87,0.00,,,0.85,0.000000,,2013-02-20 04:42:00,
2013-02-19 20:52:00,38.0,34.0,-100.00,NW,312,9.0,11.0,87,0.00,,,0.85,0.000000,,2013-02-20 04:52:00,
2013-02-19 21:02:00,38.0,34.0,-100.00,NW,312,9.0,11.0,87,0.00,,,0.85,0.000000,,2013-02-20 05:02:00,
2013-02-19 21:12:00,38.0,34.0,-100.00,NW,312,9.0,11.0,87,0.00,,,0.85,0.000000,,2013-02-20 05:12:00,
2013-02-19 21:43:00,38.0,36.0,-100.00,NW,325,6.0,15.0,93,0.01,,,0.86,0.000000,,2013-02-20 05:43:00,
2013-02-19 21:52:00,38.0,36.0,-100.00,NW,325,6.0,15.0,93,0.01,,,0.86,0.000000,,2013-02-20 05:52:00,
2013-02-19 22:01:00,38.0,36.0,-100.00,NW,325,6.0,15.0,93,0.01,,,0.86,0.000000,,2013-02-20 06:01:00,
2013-02-19 22:11:00,38.0,36.0,-100.00,NW,325,6.0,15.0,93,0.01,,,0.86,0.000000,,2013-02-20 06:11:00,
2013-02-19 22:42:00,38.0,37.0,-100.00,NNW,332,5.0,11.0,95,0.01,,,0.85,0.000000,,2013-02-20 06:42:00,
2013-02-19 22:52:00,38.0,37.0,-100.00,NNW,332,5.0,11.0,95,0.01,,,0.85,0.000000,,2013-02-20 06:52:00,
2013-02-19 23:01:00,38.0,37.0,-100.00,NNW,332,5.0,11.0,95,0.01,,,0.85,0.000000,,2013-02-20 07:01:00,
2013-02-19 23:11:00,38.0,37.0,-100.00,NNW,332,5.0,11.0,95,0.01,,,0.85,0.000000,,2013-02-20 07:11:00,